Year,Month,Day,Hour,Minute,Value (Times are PST for temperature in C)
2012,06,24,00,00,10.80
2012,06,24,00,01,10.80
2012,06,24,00,02,10.80
2012,06,24,00,03,10.80
2012,06,24,00,04,10.80
2012,06,24,00,05,10.80
2012,06,24,00,06,10.80
2012,06,24,00,07,10.80
2012,06,24,00,08,10.80
2012,06,24,00,09,10.80
2012,06,24,00,10,10.80
2012,06,24,00,11,10.80
2012,06,24,00,12,10.80
2012,06,24,00,13,10.80
2012,06,24,00,14,10.70
2012,06,24,00,15,10.70
2012,06,24,00,16,10.70
2012,06,24,00,17,10.70
2012,06,24,00,18,10.70
2012,06,24,00,19,10.70
2012,06,24,00,20,10.70
2012,06,24,00,21,10.70
2012,06,24,00,22,10.70
2012,06,24,00,23,10.70
2012,06,24,00,24,10.70
2012,06,24,00,25,10.70
2012,06,24,00,26,10.70
2012,06,24,00,27,10.70
2012,06,24,00,28,10.70
2012,06,24,00,29,10.70
2012,06,24,00,30,10.70
2012,06,24,00,31,10.70
2012,06,24,00,32,10.60
2012,06,24,00,33,10.60
2012,06,24,00,34,10.60
2012,06,24,00,35,10.60
2012,06,24,00,36,10.60
2012,06,24,00,37,10.60
2012,06,24,00,38,10.60
2012,06,24,00,39,10.60
2012,06,24,00,40,10.60
2012,06,24,00,41,10.60
2012,06,24,00,42,10.60
2012,06,24,00,43,10.60
2012,06,24,00,44,10.70
2012,06,24,00,45,10.70
2012,06,24,00,46,10.70
2012,06,24,00,47,10.70
2012,06,24,00,48,10.60
2012,06,24,00,49,10.60
2012,06,24,00,50,10.60
2012,06,24,00,51,10.70
2012,06,24,00,52,10.60
2012,06,24,00,53,10.60
2012,06,24,00,54,10.60
2012,06,24,00,55,10.60
2012,06,24,00,56,10.60
2012,06,24,00,57,10.60
2012,06,24,00,58,10.60
2012,06,24,00,59,10.60
2012,06,24,01,00,10.60
2012,06,24,01,01,10.60
2012,06,24,01,02,10.60
2012,06,24,01,03,10.60
2012,06,24,01,04,10.60
2012,06,24,01,05,10.60
2012,06,24,01,06,10.60
2012,06,24,01,07,10.60
2012,06,24,01,08,10.60
2012,06,24,01,09,10.60
2012,06,24,01,10,10.60
2012,06,24,01,11,10.60
2012,06,24,01,12,10.60
2012,06,24,01,13,10.50
2012,06,24,01,14,10.50
2012,06,24,01,15,10.50
2012,06,24,01,16,10.50
2012,06,24,01,17,10.50
2012,06,24,01,18,10.50
2012,06,24,01,19,10.50
2012,06,24,01,20,10.50
2012,06,24,01,21,10.50
2012,06,24,01,22,10.50
2012,06,24,01,23,10.50
2012,06,24,01,24,10.50
2012,06,24,01,25,10.50
2012,06,24,01,26,10.50
2012,06,24,01,27,10.50
2012,06,24,01,28,10.50
2012,06,24,01,29,10.50
2012,06,24,01,30,10.50
2012,06,24,01,31,10.50
2012,06,24,01,32,10.50
2012,06,24,01,33,10.40
2012,06,24,01,34,10.40
2012,06,24,01,35,10.40
2012,06,24,01,36,10.40
2012,06,24,01,37,10.40
2012,06,24,01,38,10.40
2012,06,24,01,39,10.40
2012,06,24,01,40,10.40
2012,06,24,01,41,10.40
2012,06,24,01,42,10.40
2012,06,24,01,43,10.40
2012,06,24,01,44,10.40
2012,06,24,01,45,10.40
2012,06,24,01,46,10.50
2012,06,24,01,47,10.40
2012,06,24,01,48,10.50
2012,06,24,01,49,10.50
2012,06,24,01,50,10.50
2012,06,24,01,51,10.50
2012,06,24,01,52,10.50
2012,06,24,01,53,10.50
2012,06,24,01,54,10.50
2012,06,24,01,55,10.60
2012,06,24,01,56,10.60
2012,06,24,01,57,10.60
2012,06,24,01,58,10.60
2012,06,24,01,59,10.60
2012,06,24,02,00,10.60
2012,06,24,02,01,10.60
2012,06,24,02,02,10.60
2012,06,24,02,03,10.60
2012,06,24,02,04,10.50
2012,06,24,02,05,10.50
2012,06,24,02,06,10.50
2012,06,24,02,07,10.50
2012,06,24,02,08,10.50
2012,06,24,02,09,10.50
2012,06,24,02,10,10.50
2012,06,24,02,11,10.50
2012,06,24,02,12,10.50
2012,06,24,02,13,10.50
2012,06,24,02,14,10.40
2012,06,24,02,15,10.40
2012,06,24,02,16,10.40
2012,06,24,02,17,10.40
2012,06,24,02,18,10.40
2012,06,24,02,19,10.40
2012,06,24,02,20,10.40
2012,06,24,02,21,10.40
2012,06,24,02,22,10.40
2012,06,24,02,23,10.40
2012,06,24,02,24,10.40
2012,06,24,02,25,10.40
2012,06,24,02,26,10.40
2012,06,24,02,27,10.40
2012,06,24,02,28,10.40
2012,06,24,02,29,10.40
2012,06,24,02,30,10.40
2012,06,24,02,31,10.40
2012,06,24,02,32,10.40
2012,06,24,02,33,10.40
2012,06,24,02,34,10.40
2012,06,24,02,35,10.40
2012,06,24,02,36,10.40
2012,06,24,02,37,10.40
2012,06,24,02,38,10.40
2012,06,24,02,39,10.40
2012,06,24,02,40,10.40
2012,06,24,02,41,10.40
2012,06,24,02,42,10.40
2012,06,24,02,43,10.40
2012,06,24,02,44,10.40
2012,06,24,02,45,10.40
2012,06,24,02,46,10.40
2012,06,24,02,47,10.40
2012,06,24,02,48,10.40
2012,06,24,02,49,10.40
2012,06,24,02,50,10.40
2012,06,24,02,51,10.40
2012,06,24,02,52,10.40
2012,06,24,02,53,10.40
2012,06,24,02,54,10.40
2012,06,24,02,55,10.40
2012,06,24,02,56,10.40
2012,06,24,02,57,10.40
2012,06,24,02,58,10.40
2012,06,24,02,59,10.40
2012,06,24,03,00,10.40
2012,06,24,03,01,10.40
2012,06,24,03,02,10.40
2012,06,24,03,03,10.40
2012,06,24,03,04,10.40
2012,06,24,03,05,10.40
2012,06,24,03,06,10.40
2012,06,24,03,07,10.40
2012,06,24,03,08,10.40
2012,06,24,03,09,10.40
2012,06,24,03,10,10.40
2012,06,24,03,11,10.40
2012,06,24,03,12,10.40
2012,06,24,03,13,10.40
2012,06,24,03,14,10.40
2012,06,24,03,15,10.40
2012,06,24,03,16,10.40
2012,06,24,03,17,10.40
2012,06,24,03,18,10.40
2012,06,24,03,19,10.40
2012,06,24,03,20,10.40
2012,06,24,03,21,10.40
2012,06,24,03,22,10.40
2012,06,24,03,23,10.40
2012,06,24,03,24,10.40
2012,06,24,03,25,10.40
2012,06,24,03,26,10.40
2012,06,24,03,27,10.40
2012,06,24,03,28,10.40
2012,06,24,03,29,10.40
2012,06,24,03,30,10.40
2012,06,24,03,31,10.40
2012,06,24,03,32,10.40
2012,06,24,03,33,10.40
2012,06,24,03,34,10.30
2012,06,24,03,35,10.30
2012,06,24,03,36,10.30
2012,06,24,03,37,10.30
2012,06,24,03,38,10.30
2012,06,24,03,39,10.30
2012,06,24,03,40,10.30
2012,06,24,03,41,10.30
2012,06,24,03,42,10.30
2012,06,24,03,43,10.30
2012,06,24,03,44,10.30
2012,06,24,03,45,10.30
2012,06,24,03,46,10.30
2012,06,24,03,47,10.30
2012,06,24,03,48,10.30
2012,06,24,03,49,10.30
2012,06,24,03,50,10.30
2012,06,24,03,51,10.30
2012,06,24,03,52,10.30
2012,06,24,03,53,10.30
2012,06,24,03,54,10.30
2012,06,24,03,55,10.30
2012,06,24,03,56,10.30
2012,06,24,03,57,10.30
2012,06,24,03,58,10.30
2012,06,24,03,59,10.30
2012,06,24,04,00,10.30
2012,06,24,04,01,10.30
2012,06,24,04,02,10.30
2012,06,24,04,03,10.30
2012,06,24,04,04,10.30
2012,06,24,04,05,10.30
2012,06,24,04,06,10.30
2012,06,24,04,07,10.30
2012,06,24,04,08,10.30
2012,06,24,04,09,10.30
2012,06,24,04,10,10.30
2012,06,24,04,11,10.30
2012,06,24,04,12,10.30
2012,06,24,04,13,10.30
2012,06,24,04,14,10.20
2012,06,24,04,15,10.20
2012,06,24,04,16,10.20
2012,06,24,04,17,10.20
2012,06,24,04,18,10.30
2012,06,24,04,19,10.30
2012,06,24,04,20,10.30
2012,06,24,04,21,10.20
2012,06,24,04,22,10.20
2012,06,24,04,23,10.20
2012,06,24,04,24,10.20
2012,06,24,04,25,10.20
2012,06,24,04,26,10.20
2012,06,24,04,27,10.20
2012,06,24,04,28,10.20
2012,06,24,04,29,10.20
2012,06,24,04,30,10.20
2012,06,24,04,31,10.20
2012,06,24,04,32,10.20
2012,06,24,04,33,10.20
2012,06,24,04,34,10.20
2012,06,24,04,35,10.20
2012,06,24,04,36,10.20
2012,06,24,04,37,10.20
2012,06,24,04,38,10.20
2012,06,24,04,39,10.20
2012,06,24,04,40,10.20
2012,06,24,04,41,10.20
2012,06,24,04,42,10.20
2012,06,24,04,43,10.20
2012,06,24,04,44,10.20
2012,06,24,04,45,10.20
2012,06,24,04,46,10.20
2012,06,24,04,47,10.20
2012,06,24,04,48,10.20
2012,06,24,04,49,10.20
2012,06,24,04,50,10.20
2012,06,24,04,51,10.20
2012,06,24,04,52,10.20
2012,06,24,04,53,10.20
2012,06,24,04,54,10.20
2012,06,24,04,55,10.10
2012,06,24,04,56,10.10
2012,06,24,04,57,10.10
2012,06,24,04,58,10.10
2012,06,24,04,59,10.10
2012,06,24,05,00,10.10
2012,06,24,05,01,10.10
2012,06,24,05,02,10.10
2012,06,24,05,03,10.10
2012,06,24,05,04,10.10
2012,06,24,05,05,10.10
2012,06,24,05,06,10.10
2012,06,24,05,07,10.10
2012,06,24,05,08,10.10
2012,06,24,05,09,10.10
2012,06,24,05,10,10.10
2012,06,24,05,11,10.10
2012,06,24,05,12,10.10
2012,06,24,05,13,10.10
2012,06,24,05,14,10.10
2012,06,24,05,15,10.10
2012,06,24,05,16,10.10
2012,06,24,05,17,10.10
2012,06,24,05,18,10.10
2012,06,24,05,19,10.10
2012,06,24,05,20,10.10
2012,06,24,05,21,10.10
2012,06,24,05,22,10.10
2012,06,24,05,23,10.10
2012,06,24,05,24,10.10
2012,06,24,05,25,10.10
2012,06,24,05,26,10.10
2012,06,24,05,27,10.10
2012,06,24,05,28,10.10
2012,06,24,05,29,10.10
2012,06,24,05,30,10.10
2012,06,24,05,31,10.10
2012,06,24,05,32,10.10
2012,06,24,05,33,10.10
2012,06,24,05,34,10.10
2012,06,24,05,35,10.10
2012,06,24,05,36,10.10
2012,06,24,05,37,10.10
2012,06,24,05,38,10.10
2012,06,24,05,39,10.10
2012,06,24,05,40,10.10
2012,06,24,05,41,10.10
2012,06,24,05,42,10.10
2012,06,24,05,43,10.10
2012,06,24,05,44,10.10
2012,06,24,05,45,10.10
2012,06,24,05,46,10.10
2012,06,24,05,47,10.10
2012,06,24,05,48,10.10
2012,06,24,05,49,10.10
2012,06,24,05,50,10.10
2012,06,24,05,51,10.10
2012,06,24,05,52,10.10
2012,06,24,05,53,10.10
2012,06,24,05,54,10.10
2012,06,24,05,55,10.10
2012,06,24,05,56,10.10
2012,06,24,05,57,10.10
2012,06,24,05,58,10.10
2012,06,24,05,59,10.10
2012,06,24,06,00,10.10
2012,06,24,06,01,10.10
2012,06,24,06,02,10.10
2012,06,24,06,03,10.10
2012,06,24,06,04,10.10
2012,06,24,06,05,10.10
2012,06,24,06,06,10.10
2012,06,24,06,07,10.10
2012,06,24,06,08,10.10
2012,06,24,06,09,10.10
2012,06,24,06,10,10.10
2012,06,24,06,11,10.00
2012,06,24,06,12,10.00
2012,06,24,06,13,10.00
2012,06,24,06,14,10.00
2012,06,24,06,15,10.00
2012,06,24,06,16,10.00
2012,06,24,06,17,10.00
2012,06,24,06,18,10.00
2012,06,24,06,19,10.00
2012,06,24,06,20,10.00
2012,06,24,06,21,10.00
2012,06,24,06,22,10.00
2012,06,24,06,23,10.00
2012,06,24,06,24,10.00
2012,06,24,06,25,10.00
2012,06,24,06,26,10.00
2012,06,24,06,27,10.00
2012,06,24,06,28,9.90
2012,06,24,06,29,9.90
2012,06,24,06,30,9.90
2012,06,24,06,31,9.90
2012,06,24,06,32,9.90
2012,06,24,06,33,9.90
2012,06,24,06,34,9.90
2012,06,24,06,35,9.90
2012,06,24,06,36,9.90
2012,06,24,06,37,9.90
2012,06,24,06,38,9.90
2012,06,24,06,39,9.90
2012,06,24,06,40,9.90
2012,06,24,06,41,9.90
2012,06,24,06,42,9.90
2012,06,24,06,43,9.90
2012,06,24,06,44,9.90
2012,06,24,06,45,9.90
2012,06,24,06,46,9.90
2012,06,24,06,47,9.90
2012,06,24,06,48,9.90
2012,06,24,06,49,9.90
2012,06,24,06,50,9.90
2012,06,24,06,51,9.90
2012,06,24,06,52,9.90
2012,06,24,06,53,9.90
2012,06,24,06,54,9.90
2012,06,24,06,55,10.00
2012,06,24,06,56,10.00
2012,06,24,06,57,10.00
2012,06,24,06,58,10.00
2012,06,24,06,59,10.00
2012,06,24,07,00,10.00
2012,06,24,07,01,10.00
2012,06,24,07,02,10.10
2012,06,24,07,03,10.10
2012,06,24,07,04,10.10
2012,06,24,07,05,10.10
2012,06,24,07,06,10.10
2012,06,24,07,07,10.10
2012,06,24,07,08,10.20
2012,06,24,07,09,10.20
2012,06,24,07,10,10.20
2012,06,24,07,11,10.20
2012,06,24,07,12,10.30
2012,06,24,07,13,10.30
2012,06,24,07,14,10.30
2012,06,24,07,15,10.30
2012,06,24,07,16,10.30
2012,06,24,07,17,10.30
2012,06,24,07,18,10.30
2012,06,24,07,19,10.30
2012,06,24,07,20,10.40
2012,06,24,07,21,10.40
2012,06,24,07,22,10.40
2012,06,24,07,23,10.50
2012,06,24,07,24,10.50
2012,06,24,07,25,10.60
2012,06,24,07,26,10.60
2012,06,24,07,27,10.70
2012,06,24,07,28,10.70
2012,06,24,07,29,10.70
2012,06,24,07,30,10.70
2012,06,24,07,31,10.70
2012,06,24,07,32,10.70
2012,06,24,07,33,10.80
2012,06,24,07,34,10.80
2012,06,24,07,35,10.80
2012,06,24,07,36,10.90
2012,06,24,07,37,10.90
2012,06,24,07,38,11.00
2012,06,24,07,39,11.00
2012,06,24,07,40,11.10
2012,06,24,07,41,11.10
2012,06,24,07,42,11.10
2012,06,24,07,43,11.20
2012,06,24,07,44,11.20
2012,06,24,07,45,11.30
2012,06,24,07,46,11.30
2012,06,24,07,47,11.30
2012,06,24,07,48,11.40
2012,06,24,07,49,11.40
2012,06,24,07,50,11.40
2012,06,24,07,51,11.40
2012,06,24,07,52,11.40
2012,06,24,07,53,11.40
2012,06,24,07,54,11.40
2012,06,24,07,55,11.30
2012,06,24,07,56,11.30
2012,06,24,07,57,11.30
2012,06,24,07,58,11.30
2012,06,24,07,59,11.30
2012,06,24,08,00,11.40
2012,06,24,08,01,11.40
2012,06,24,08,02,11.40
2012,06,24,08,03,11.40
2012,06,24,08,04,11.40
2012,06,24,08,05,11.50
2012,06,24,08,06,11.50
2012,06,24,08,07,11.60
2012,06,24,08,08,11.70
2012,06,24,08,09,11.70
2012,06,24,08,10,11.80
2012,06,24,08,11,11.80
2012,06,24,08,12,11.90
2012,06,24,08,13,12.00
2012,06,24,08,14,12.00
2012,06,24,08,15,12.10
2012,06,24,08,16,12.20
2012,06,24,08,17,12.30
2012,06,24,08,18,12.30
2012,06,24,08,19,12.30
2012,06,24,08,20,12.20
2012,06,24,08,21,12.10
2012,06,24,08,22,12.10
2012,06,24,08,23,12.10
2012,06,24,08,24,12.10
2012,06,24,08,25,12.00
2012,06,24,08,26,12.00
2012,06,24,08,27,12.00
2012,06,24,08,28,12.00
2012,06,24,08,29,12.00
2012,06,24,08,30,12.00
2012,06,24,08,31,12.10
2012,06,24,08,32,12.10
2012,06,24,08,33,12.10
2012,06,24,08,34,12.20
2012,06,24,08,35,12.20
2012,06,24,08,36,12.30
2012,06,24,08,37,12.30
2012,06,24,08,38,12.40
2012,06,24,08,39,12.40
2012,06,24,08,40,12.40
2012,06,24,08,41,12.50
2012,06,24,08,42,12.50
2012,06,24,08,43,12.50
2012,06,24,08,44,12.50
2012,06,24,08,45,12.60
2012,06,24,08,46,12.60
2012,06,24,08,47,12.70
2012,06,24,08,48,12.70
2012,06,24,08,49,12.70
2012,06,24,08,50,12.70
2012,06,24,08,51,12.70
2012,06,24,08,52,12.70
2012,06,24,08,53,12.70
2012,06,24,08,54,12.60
2012,06,24,08,55,12.60
2012,06,24,08,56,12.60
2012,06,24,08,57,12.60
2012,06,24,08,58,12.60
2012,06,24,08,59,12.60
2012,06,24,09,00,12.60
2012,06,24,09,01,12.60
2012,06,24,09,02,12.60
2012,06,24,09,03,12.60
2012,06,24,09,04,12.60
2012,06,24,09,05,12.60
2012,06,24,09,06,12.70
2012,06,24,09,07,12.70
2012,06,24,09,08,12.70
2012,06,24,09,09,12.70
2012,06,24,09,10,12.70
2012,06,24,09,11,12.80
2012,06,24,09,12,12.90
2012,06,24,09,13,13.00
2012,06,24,09,14,13.10
2012,06,24,09,15,13.20
2012,06,24,09,16,13.30
2012,06,24,09,17,13.30
2012,06,24,09,18,13.40
2012,06,24,09,19,13.50
2012,06,24,09,20,13.50
2012,06,24,09,21,13.60
2012,06,24,09,22,13.60
2012,06,24,09,23,13.70
2012,06,24,09,24,13.70
2012,06,24,09,25,13.70
2012,06,24,09,26,13.70
2012,06,24,09,27,13.70
2012,06,24,09,28,13.70
2012,06,24,09,29,13.70
2012,06,24,09,30,13.60
2012,06,24,09,31,13.60
2012,06,24,09,32,13.50
2012,06,24,09,33,13.50
2012,06,24,09,34,13.50
2012,06,24,09,35,13.50
2012,06,24,09,36,13.50
2012,06,24,09,37,13.50
2012,06,24,09,38,13.50
2012,06,24,09,39,13.50
2012,06,24,09,40,13.60
2012,06,24,09,41,13.70
2012,06,24,09,42,13.80
2012,06,24,09,43,13.90
2012,06,24,09,44,14.10
2012,06,24,09,45,14.20
2012,06,24,09,46,14.30
2012,06,24,09,47,14.40
2012,06,24,09,48,14.40
2012,06,24,09,49,14.40
2012,06,24,09,50,14.40
2012,06,24,09,51,14.40
2012,06,24,09,52,14.40
2012,06,24,09,53,14.40
2012,06,24,09,54,14.40
2012,06,24,09,55,14.40
2012,06,24,09,56,14.50
2012,06,24,09,57,14.60
2012,06,24,09,58,14.50
2012,06,24,09,59,14.50
2012,06,24,10,00,14.50
2012,06,24,10,01,14.50
2012,06,24,10,02,14.50
2012,06,24,10,03,14.60
2012,06,24,10,04,14.70
2012,06,24,10,05,14.70
2012,06,24,10,06,14.70
2012,06,24,10,07,14.70
2012,06,24,10,08,14.70
2012,06,24,10,09,14.70
2012,06,24,10,10,14.80
2012,06,24,10,11,14.80
2012,06,24,10,12,14.90
2012,06,24,10,13,14.90
2012,06,24,10,14,14.90
2012,06,24,10,15,15.00
2012,06,24,10,16,15.00
2012,06,24,10,17,15.10
2012,06,24,10,18,15.10
2012,06,24,10,19,15.10
2012,06,24,10,20,15.10
2012,06,24,10,21,15.10
2012,06,24,10,22,15.10
2012,06,24,10,23,15.10
2012,06,24,10,24,15.10
2012,06,24,10,25,15.10
2012,06,24,10,26,15.20
2012,06,24,10,27,15.30
2012,06,24,10,28,15.40
2012,06,24,10,29,15.40
2012,06,24,10,30,15.40
2012,06,24,10,31,15.40
2012,06,24,10,32,15.50
2012,06,24,10,33,15.60
2012,06,24,10,34,15.60
2012,06,24,10,35,15.60
2012,06,24,10,36,15.60
2012,06,24,10,37,15.60
2012,06,24,10,38,15.60
2012,06,24,10,39,15.70
2012,06,24,10,40,15.70
2012,06,24,10,41,15.80
2012,06,24,10,42,16.00
2012,06,24,10,43,16.10
2012,06,24,10,44,16.20
2012,06,24,10,45,16.30
2012,06,24,10,46,16.30
2012,06,24,10,47,16.30
2012,06,24,10,48,16.30
2012,06,24,10,49,16.30
2012,06,24,10,50,16.30
2012,06,24,10,51,16.30
2012,06,24,10,52,16.20
2012,06,24,10,53,16.20
2012,06,24,10,54,16.10
2012,06,24,10,55,16.10
2012,06,24,10,56,16.10
2012,06,24,10,57,16.10
2012,06,24,10,58,16.00
2012,06,24,10,59,15.90
2012,06,24,11,00,15.80
2012,06,24,11,01,15.70
2012,06,24,11,02,15.70
2012,06,24,11,03,15.70
2012,06,24,11,04,15.70
2012,06,24,11,05,15.80
2012,06,24,11,06,15.90
2012,06,24,11,07,15.90
2012,06,24,11,08,16.00
2012,06,24,11,09,16.00
2012,06,24,11,10,16.10
2012,06,24,11,11,16.20
2012,06,24,11,12,16.30
2012,06,24,11,13,16.50
2012,06,24,11,14,16.60
2012,06,24,11,15,16.70
2012,06,24,11,16,16.70
2012,06,24,11,17,16.70
2012,06,24,11,18,16.80
2012,06,24,11,19,16.80
2012,06,24,11,20,16.90
2012,06,24,11,21,17.00
2012,06,24,11,22,17.10
2012,06,24,11,23,17.10
2012,06,24,11,24,17.20
2012,06,24,11,25,17.20
2012,06,24,11,26,17.30
2012,06,24,11,27,17.30
2012,06,24,11,28,17.40
2012,06,24,11,29,17.40
2012,06,24,11,30,17.40
2012,06,24,11,31,17.40
2012,06,24,11,32,17.40
2012,06,24,11,33,17.30
2012,06,24,11,34,17.30
2012,06,24,11,35,17.40
2012,06,24,11,36,17.40
2012,06,24,11,37,17.50
2012,06,24,11,38,17.60
2012,06,24,11,39,17.50
2012,06,24,11,40,17.30
2012,06,24,11,41,17.00
2012,06,24,11,42,16.80
2012,06,24,11,43,16.60
2012,06,24,11,44,16.40
2012,06,24,11,45,16.30
2012,06,24,11,46,16.20
2012,06,24,11,47,16.20
2012,06,24,11,48,16.10
2012,06,24,11,49,16.10
2012,06,24,11,50,16.10
2012,06,24,11,51,16.10
2012,06,24,11,52,16.10
2012,06,24,11,53,16.10
2012,06,24,11,54,16.10
2012,06,24,11,55,16.10
2012,06,24,11,56,16.10
2012,06,24,11,57,16.00
2012,06,24,11,58,16.00
2012,06,24,11,59,16.00
2012,06,24,12,00,16.10
2012,06,24,12,01,16.10
2012,06,24,12,02,16.20
2012,06,24,12,03,16.30
2012,06,24,12,04,16.30
2012,06,24,12,05,16.40
2012,06,24,12,06,16.40
2012,06,24,12,07,16.50
2012,06,24,12,08,16.60
2012,06,24,12,09,16.60
2012,06,24,12,10,16.70
2012,06,24,12,11,16.70
2012,06,24,12,12,16.70
2012,06,24,12,13,16.60
2012,06,24,12,14,16.60
2012,06,24,12,15,16.50
2012,06,24,12,16,16.50
2012,06,24,12,17,16.40
2012,06,24,12,18,16.40
2012,06,24,12,19,16.40
2012,06,24,12,20,16.40
2012,06,24,12,21,16.40
2012,06,24,12,22,16.40
2012,06,24,12,23,16.30
2012,06,24,12,24,16.30
2012,06,24,12,25,16.30
2012,06,24,12,26,16.20
2012,06,24,12,27,16.20
2012,06,24,12,28,16.20
2012,06,24,12,29,16.20
2012,06,24,12,30,16.30
2012,06,24,12,31,16.30
2012,06,24,12,32,16.30
2012,06,24,12,33,16.30
2012,06,24,12,34,16.40
2012,06,24,12,35,16.40
2012,06,24,12,36,16.30
2012,06,24,12,37,16.30
2012,06,24,12,38,16.30
2012,06,24,12,39,16.30
2012,06,24,12,40,16.30
2012,06,24,12,41,16.30
2012,06,24,12,42,16.40
2012,06,24,12,43,16.50
2012,06,24,12,44,16.60
2012,06,24,12,45,16.60
2012,06,24,12,46,16.70
2012,06,24,12,47,16.80
2012,06,24,12,48,17.00
2012,06,24,12,49,17.10
2012,06,24,12,50,17.10
2012,06,24,12,51,17.10
2012,06,24,12,52,17.00
2012,06,24,12,53,17.00
2012,06,24,12,54,17.10
2012,06,24,12,55,17.10
2012,06,24,12,56,17.10
2012,06,24,12,57,17.10
2012,06,24,12,58,17.10
2012,06,24,12,59,17.10
2012,06,24,13,00,17.10
2012,06,24,13,01,17.10
2012,06,24,13,02,17.10
2012,06,24,13,03,17.10
2012,06,24,13,04,17.10
2012,06,24,13,05,17.10
2012,06,24,13,06,17.10
2012,06,24,13,07,17.10
2012,06,24,13,08,17.10
2012,06,24,13,09,17.00
2012,06,24,13,10,16.90
2012,06,24,13,11,16.80
2012,06,24,13,12,16.80
2012,06,24,13,13,16.80
2012,06,24,13,14,16.80
2012,06,24,13,15,16.90
2012,06,24,13,16,17.00
2012,06,24,13,17,17.00
2012,06,24,13,18,17.10
2012,06,24,13,19,17.20
2012,06,24,13,20,17.20
2012,06,24,13,21,17.20
2012,06,24,13,22,17.20
2012,06,24,13,23,17.30
2012,06,24,13,24,17.40
2012,06,24,13,25,17.50
2012,06,24,13,26,17.50
2012,06,24,13,27,17.60
2012,06,24,13,28,17.70
2012,06,24,13,29,17.70
2012,06,24,13,30,17.70
2012,06,24,13,31,17.70
2012,06,24,13,32,17.70
2012,06,24,13,33,17.80
2012,06,24,13,34,17.80
2012,06,24,13,35,17.80
2012,06,24,13,36,17.80
2012,06,24,13,37,17.80
2012,06,24,13,38,17.80
2012,06,24,13,39,17.80
2012,06,24,13,40,17.80
2012,06,24,13,41,17.90
2012,06,24,13,42,18.00
2012,06,24,13,43,18.10
2012,06,24,13,44,18.10
2012,06,24,13,45,18.10
2012,06,24,13,46,18.10
2012,06,24,13,47,18.10
2012,06,24,13,48,18.00
2012,06,24,13,49,17.90
2012,06,24,13,50,17.90
2012,06,24,13,51,17.90
2012,06,24,13,52,17.90
2012,06,24,13,53,17.90
2012,06,24,13,54,17.90
2012,06,24,13,55,17.80
2012,06,24,13,56,17.80
2012,06,24,13,57,17.80
2012,06,24,13,58,17.80
2012,06,24,13,59,17.90
2012,06,24,14,00,17.90
2012,06,24,14,01,17.80
2012,06,24,14,02,17.70
2012,06,24,14,03,17.60
2012,06,24,14,04,17.60
2012,06,24,14,05,17.60
2012,06,24,14,06,17.70
2012,06,24,14,07,17.60
2012,06,24,14,08,17.60
2012,06,24,14,09,17.60
2012,06,24,14,10,17.60
2012,06,24,14,11,17.70
2012,06,24,14,12,17.80
2012,06,24,14,13,17.80
2012,06,24,14,14,17.90
2012,06,24,14,15,17.80
2012,06,24,14,16,17.70
2012,06,24,14,17,17.70
2012,06,24,14,18,17.70
2012,06,24,14,19,17.60
2012,06,24,14,20,17.60
2012,06,24,14,21,17.60
2012,06,24,14,22,17.60
2012,06,24,14,23,17.60
2012,06,24,14,24,17.60
2012,06,24,14,25,17.60
2012,06,24,14,26,17.60
2012,06,24,14,27,17.60
2012,06,24,14,28,17.70
2012,06,24,14,29,17.70
2012,06,24,14,30,17.70
2012,06,24,14,31,17.70
2012,06,24,14,32,17.70
2012,06,24,14,33,17.70
2012,06,24,14,34,17.70
2012,06,24,14,35,17.70
2012,06,24,14,36,17.70
2012,06,24,14,37,17.70
2012,06,24,14,38,17.70
2012,06,24,14,39,17.80
2012,06,24,14,40,17.80
2012,06,24,14,41,17.90
2012,06,24,14,42,18.00
2012,06,24,14,43,18.10
2012,06,24,14,44,18.10
2012,06,24,14,45,18.10
2012,06,24,14,46,18.10
2012,06,24,14,47,18.10
2012,06,24,14,48,18.00
2012,06,24,14,49,18.00
2012,06,24,14,50,18.00
2012,06,24,14,51,17.90
2012,06,24,14,52,17.90
2012,06,24,14,53,17.80
2012,06,24,14,54,17.80
2012,06,24,14,55,17.90
2012,06,24,14,56,17.90
2012,06,24,14,57,17.90
2012,06,24,14,58,18.00
2012,06,24,14,59,18.00
2012,06,24,15,00,18.10
2012,06,24,15,01,18.10
2012,06,24,15,02,18.10
2012,06,24,15,03,18.10
2012,06,24,15,04,18.10
2012,06,24,15,05,18.10
2012,06,24,15,06,18.10
2012,06,24,15,07,18.10
2012,06,24,15,08,18.20
2012,06,24,15,09,18.20
2012,06,24,15,10,18.20
2012,06,24,15,11,18.20
2012,06,24,15,12,18.10
2012,06,24,15,13,18.10
2012,06,24,15,14,18.00
2012,06,24,15,15,17.90
2012,06,24,15,16,17.90
2012,06,24,15,17,17.80
2012,06,24,15,18,17.80
2012,06,24,15,19,17.80
2012,06,24,15,20,17.80
2012,06,24,15,21,17.80
2012,06,24,15,22,17.70
2012,06,24,15,23,17.70
2012,06,24,15,24,17.70
2012,06,24,15,25,17.60
2012,06,24,15,26,17.60
2012,06,24,15,27,17.50
2012,06,24,15,28,17.40
2012,06,24,15,29,17.30
2012,06,24,15,30,17.30
2012,06,24,15,31,17.20
2012,06,24,15,32,17.20
2012,06,24,15,33,17.20
2012,06,24,15,34,17.20
2012,06,24,15,35,17.10
2012,06,24,15,36,17.00
2012,06,24,15,37,17.00
2012,06,24,15,38,16.90
2012,06,24,15,39,16.90
2012,06,24,15,40,16.90
2012,06,24,15,41,16.90
2012,06,24,15,42,16.90
2012,06,24,15,43,16.90
2012,06,24,15,44,16.90
2012,06,24,15,45,16.90
2012,06,24,15,46,16.90
2012,06,24,15,47,16.90
2012,06,24,15,48,16.80
2012,06,24,15,49,16.60
2012,06,24,15,50,16.50
2012,06,24,15,51,16.30
2012,06,24,15,52,16.20
2012,06,24,15,53,16.10
2012,06,24,15,54,16.00
2012,06,24,15,55,15.90
2012,06,24,15,56,15.90
2012,06,24,15,57,15.90
2012,06,24,15,58,15.90
2012,06,24,15,59,15.90
2012,06,24,16,00,15.90
2012,06,24,16,01,15.90
2012,06,24,16,02,15.90
2012,06,24,16,03,15.90
2012,06,24,16,04,15.90
2012,06,24,16,05,15.80
2012,06,24,16,06,15.80
2012,06,24,16,07,15.80
2012,06,24,16,08,15.60
2012,06,24,16,09,15.50
2012,06,24,16,10,15.30
2012,06,24,16,11,15.20
2012,06,24,16,12,15.10
2012,06,24,16,13,15.00
2012,06,24,16,14,14.90
2012,06,24,16,15,14.80
2012,06,24,16,16,14.70
2012,06,24,16,17,14.60
2012,06,24,16,18,14.60
2012,06,24,16,19,14.50
2012,06,24,16,20,14.40
2012,06,24,16,21,14.40
2012,06,24,16,22,14.40
2012,06,24,16,23,14.40
2012,06,24,16,24,14.40
2012,06,24,16,25,14.40
2012,06,24,16,26,14.40
2012,06,24,16,27,14.40
2012,06,24,16,28,14.40
2012,06,24,16,29,14.40
2012,06,24,16,30,14.40
2012,06,24,16,31,14.40
2012,06,24,16,32,14.40
2012,06,24,16,33,14.50
2012,06,24,16,34,14.50
2012,06,24,16,35,14.50
2012,06,24,16,36,14.50
2012,06,24,16,37,14.60
2012,06,24,16,38,14.60
2012,06,24,16,39,14.50
2012,06,24,16,40,14.50
2012,06,24,16,41,14.50
2012,06,24,16,42,14.60
2012,06,24,16,43,14.60
2012,06,24,16,44,14.60
2012,06,24,16,45,14.60
2012,06,24,16,46,14.60
2012,06,24,16,47,14.60
2012,06,24,16,48,14.60
2012,06,24,16,49,14.60
2012,06,24,16,50,14.60
2012,06,24,16,51,14.60
2012,06,24,16,52,14.60
2012,06,24,16,53,14.60
2012,06,24,16,54,14.70
2012,06,24,16,55,14.70
2012,06,24,16,56,14.70
2012,06,24,16,57,14.80
2012,06,24,16,58,14.80
2012,06,24,16,59,14.90
2012,06,24,17,00,14.90
2012,06,24,17,01,14.90
2012,06,24,17,02,15.00
2012,06,24,17,03,15.00
2012,06,24,17,04,15.00
2012,06,24,17,05,15.10
2012,06,24,17,06,15.10
2012,06,24,17,07,15.10
2012,06,24,17,08,15.10
2012,06,24,17,09,15.10
2012,06,24,17,10,15.00
2012,06,24,17,11,15.00
2012,06,24,17,12,15.00
2012,06,24,17,13,14.90
2012,06,24,17,14,14.90
2012,06,24,17,15,14.80
2012,06,24,17,16,14.70
2012,06,24,17,17,14.70
2012,06,24,17,18,14.60
2012,06,24,17,19,14.50
2012,06,24,17,20,14.40